Regional Weather Roundup
Issued by NWS Sterling, VA

Home | Current Version | Previous Version | Text Only | Print | Product List | Glossary On
Versions: 1 2 3 4 5 6 7 8 9 10 11 12 13 14 15 16 17 18 19 20 21 22 23 24 25 26 27
000
ASUS41 KLWX 300910
RWRLWX

REGIONAL WEATHER ROUNDUP
NATIONAL WEATHER SERVICE BALTIMORE MD/WASHINGTON DC
500 AM EDT TUE AUG 30 2016

Note: "FAIR" indicates few or no clouds below 12,000 feet
with no significant weather and/or obstructions to visibility.
 TC=TEMPERATURE CELSIUS

 * =Non NWS site. Station does not report precipitation (e.g. rain,
    snow, etc.), thunder, or fog.

DCZ001-MDZ009-015-VAZ040>042-051-053>054-301000-
WASHINGTON METRO

CITY           SKY/WX    TMP DP  RH WIND       PRES   REMARKS
WASHINGTON NAT MOCLDY    77  63  61 N8        30.13R
DULLES         MOCLDY    73  62  68 N7        30.14R
ANDREWS AFB    MOCLDY    70  64  79 N8        30.11S
FT BELVOIR     PTCLDY    74  64  71 VRB1      30.11S
QUANTICO       CLEAR     79  66  64 NE10      30.12R
COLLEGE PARK*  CLOUDY    68  63  83 CALM      30.12S
LEESBURG*      MOCLDY    72  64  78 N6        30.15S
MANASSAS*      MOCLDY    73  64  73 N7        30.13R
GAITHERSBURG*  CLEAR     66  59  77 CALM      30.19R

$$

MDZ006>007-011-014-301000-
BALTIMORE METRO

CITY           SKY/WX    TMP DP  RH WIND       PRES   REMARKS
BWI AIRPORT    PTCLDY    72  60  66 NE6       30.12S
MD SCIENCE CTR   N/A     75  59  57 MISG      30.13S
MARTIN STATE   CLEAR     72  63  73 CALM      30.14R
ANNAPOLIS      CLEAR     77  65  66 NE5       30.11R
FORT MEADE*    CLEAR     64  63  94 CALM      30.15R

$$

MDZ012-015-019>023-301000-
MARYLAND EASTERN SHORE

CITY           SKY/WX    TMP DP  RH WIND       PRES   REMARKS
OCEAN CITY     CLEAR     70  67  90 CALM      30.08S
SALISBURY      CLEAR     70  68  93 CALM      30.08S
BAY BRIDGE AP* CLEAR     73  64  73 NE6       30.11S
CAMBRIDGE*     CLEAR     72  63  73 N6        30.08F
EASTON*        CLEAR     72  66  83 NE7       30.13S

$$

MDZ017>025-301000-
SOUTHERN MARYLAND

CITY           SKY/WX    TMP DP  RH WIND       PRES   REMARKS
PATUXENT RIVER CLEAR     75  64  68 NE6       30.09S
ST INIGOES     CLEAR     75  66  73 N6        30.08S
LEONARDTOWN*   CLEAR     70  64  83 CALM      30.11S

$$

MDZ003>005-301000-
NORTH CENTRAL MARYLAND

CITY           SKY/WX    TMP DP  RH WIND       PRES   REMARKS
FREDERICK*     CLEAR     64  64 100 CALM      30.18S
HAGERSTOWN APT PTCLDY    70  58  65 N5        30.17R

$$

MDZ501>502-301000-
WESTERN MARYLAND

CITY           SKY/WX    TMP DP  RH WIND       PRES   REMARKS
OAKLAND*       CLEAR     63  54  72 E7        30.26S
CUMBERLAND*    CLEAR     66  61  82 NE3       30.22R

$$

VAZ025>031-301000-
SHENANDOAH VALLEY

CITY           SKY/WX    TMP DP  RH WIND       PRES   REMARKS
WINCHESTER*    CLEAR     66  61  82 N3        30.17R
FRONT ROYAL*   FAIR      64  63  94 CALM      30.16R
LURAY*         FAIR     N/A N/A N/A CALM      30.16S
NEW MARKET*    FAIR     N/A N/A N/A CALM      30.16R
STAUNTON*      CLEAR     64  64  97 CALM      30.19S
WAYNESBORO*    FAIR      66  65  96 CALM      30.19S

$$

WVZ021-048>050-054>055-301000-
EASTERN WEST VIRGINIA PANHANDLE

CITY           SKY/WX    TMP DP  RH WIND       PRES   REMARKS
MARTINSBURG    CLEAR     67  60  78 CALM      30.16R
PETERSBURG*    CLEAR     64  64  99 CALM      30.19R FOG

$$

VAZ036>039-050-301000-
CENTRAL FOOTHILLS

CITY           SKY/WX    TMP DP  RH WIND       PRES   REMARKS
CHARLOTTESVILL PTCLDY    70  67  90 CALM      30.13S
CULPEPER*      CLOUDY    70  67  92 N3        30.14R
ORANGE*        NOT AVBL
GORDONSVILLE*  FAIR      73  66  78 N7        30.12R
WARRENTON*     FAIR      71  62  73 NE5       30.13R

$$

VAZ055>057-301000-
NORTH AND CENTRAL PIEDMONT

CITY           SKY/WX    TMP DP  RH WIND       PRES   REMARKS
FREDERICKSBRG* CLEAR     72  72 100 CALM      30.10R
STAFFORD*      CLEAR     69  68  97 CALM      30.15S

$$

NCZ024-NYZ072-PAZ021-071-VAZ022-071-301000-
OTHER REGIONAL OBSERVATIONS

CITY           SKY/WX    TMP DP  RH WIND       PRES   REMARKS
NEW YORK CITY  MOCLDY    72  56  57 E7        30.18R
PHILADELPHIA   CLEAR     73  57  57 NE9       30.14R
PITTSBURGH     CLEAR     64  57  78 N3        30.19F
ROANOKE        CLEAR     70  67  90 CALM      30.17F
RICHMOND       PTCLDY    70  65  84 N3        30.09S
RALEIGH        PTCLDY    70  65  84 CALM      30.09S

$$

ANZ530>537-301000-
MARINE OBSERVATIONS

STATION/POSITION TIME  TEMP    WIND        PRES
                       AIR SEA DIR/SP/G
                 (UTC) (F)     (DEG/KT/KT) (MB)
THOMAS PT LIGHT  0900   77 83   30/ 13/ 15 1020.7S
BALT KEY BRIDGE  0842   74      20/  8/ 10 1019.9R
COVE POINT       0842   77      40/  4/  7 1019.5S
LEWISETTA        0842   79 84   50/  6/  9 1018.2S
SOLOMONS ISLAND  0842   78 84   30/  5/  6   N/A
PINEY POINT      0848           60/  6/  8   N/A

$$





USA.gov is the U.S. government's official web portal to all federal, state and local government web resources and services.